Location: Home
(42.5358°N, 72.7383°W)
Time: 16:06:02
(UTC-05:00)

Vanguard 3 - Pass Details

Date: 05 December 2021
Orbit: 508 x 3260 km, 33.3° (Epoch: 20 January)

Event Time Altitude Azimuth Distance (km) Brightness Sun altitude
Rises 08:48:33 0° 279° (W) 6,927 11.4 13.8°
Reaches altitude 10° 08:54:18 10° 271° (W) 5,590 11.1 14.4°
Maximum altitude 09:07:02 31° 218° (SW) 3,135 10.5 15.9°
Drops below altitude 10° 09:15:23 10° 160° (SSE) 3,610 12.3 16.8°
Sets 09:18:14 0° 150° (SSE) 4,244 12.6 17.1°
